Regional Weather Roundup
Issued by NWS

Home | Current Version | Previous Version | Text Only | Print | Product List | Glossary On
Versions: 1 2 3 4 5 6 7 8 9 10 11 12 13 14 15 16 17 18 19 20 21 22 23 24 25 26 27 28 29 30 31 32 33 34 35 36 37 38 39 40 41 42 43 44 45 46 47 48 49 50
000
ASUS46 KLOX 300513
RWRCA

SOUTHERN CALIFORNIA WEATHER ROUNDUP
NATIONAL WEATHER SERVICE OXNARD CALIFORNIA
1000 PM PDT FRI APR 29 2016

NOTE: "FAIR" INDICATES FEW OR NO CLOUDS BELOW 12,000 FEET WITH NO
SIGNIFICANT WEATHER AND/OR OBSTRUCTIONS TO VISIBILITY.

  -  STATIONS PRECEEDED BY AN ASTERISK (*) ARE NOT NWS OR FAA
     STATIONS AND ARE NOT SUBJECT TO NWS AND FAA QUALITY CONTROL.

CAZ041-042-087-300600-
LA AND ORANGE COUNTY COASTAL AREAS


CITY           SKY/WX    TMP DP  RH WIND       PRES   REMARKS
L.A. DOWNTOWN  CLEAR     58  50  75 S3        29.91S
L.A. AIRPORT   PTCLDY    57  51  80 SW8       29.92S
LONG BEACH     PTCLDY    58  50  75 W5        29.92S

CITY           SKY/WX    TMP DP  RH WIND       PRES   REMARKS
AVALON           N/A     55 N/A N/A MISG        N/A
FULLERTON      CLOUDY    60  52  74 SE6       29.91F
*GETTY CENTER    N/A    N/A N/A N/A E3          N/A
HAWTHORNE      CLEAR     58  50  75 S5        29.92F
*LEO CARRILLO    N/A     55  50  84 W7          N/A
*LOS ALAMITOS  FAIR      57  51  79 W3        29.92S
*REDONDO BEACH   N/A     56  50  79 W1        29.92S
SANTA ANA      PTCLDY    58  51  78 SW5       29.92F
STA MONICA APT CLEAR     57  50  77 E3        29.91S
*UCLA            N/A     55  48  76 N1        29.88S

$$

CAZ547-548-048-300600-
LA COUNTY VALLEYS AND INLAND EMPIRE


CITY           SKY/WX    TMP DP  RH WIND       PRES   REMARKS
BURBANK        CLEAR     57  48  72 SE8       29.90S
VAN NUYS       CLEAR     58  48  69 E7        29.90S

CITY           SKY/WX    TMP DP  RH WIND       PRES   REMARKS
CORONA AIRPORT CLEAR     57  51  80 NW5       29.91F
*CHATSWORTH      N/A     57  49  73 E2        29.91S
CHINO          CLOUDY    57  50  77 W9        29.92F
*CLAREMONT       N/A     56  50  81 SW6         N/A
MARCH AFB      CLEAR     55  52  88 NW5       29.91S
*NORTHRIDGE      N/A     59  46  63 E3          N/A
ONTARIO        PTCLDY    57  50  77 W6        29.91F
*PASADENA        N/A     59  52  77 E1          N/A
RIVERSIDE      CLEAR     58  49  72 W5        29.91S
SAN BERNARDINO NOT AVBL
*SAN GABRIEL     N/A     59  51  75 S1        29.98F
*SAN RAFAEL HI   N/A     51  48  90 SW6         N/A
*SAUGUS          N/A     57  47  70 W6          N/A
*WHITEMAN AP   NOT AVBL
*WHITTIER HILL   N/A     52  49  90 S3          N/A
*WOODLAND HILL   N/A     57  48  72 S1          N/A

$$

CAZ054-055-300600-
LA AND SAN BERNARDINO COUNTY MOUNTAINS


CITY           SKY/WX    TMP DP  RH WIND       PRES   REMARKS
*ACTON           N/A     53  46  78 CALM        N/A
*BIG BEAR AIRP CLEAR     43  28  56 SW8       29.98S
*BIG PINES       N/A     42  35  75 CALM        N/A
*CHILAO          N/A     49  33  53 NW7         N/A
SANDBERG       CLEAR     53  39  59 W6        29.94F
*WARM SPRINGS    N/A     47  33  59 CALM        N/A

$$

CAZ028-029-059-060-099-300600-
ANTELOPE VALLEY AND SURROUNDING AREAS


CITY           SKY/WX    TMP DP  RH WIND       PRES   REMARKS
LANCASTER      CLEAR     59  43  55 SW13      29.86F
PALMDALE       CLEAR     57  44  62 SW13      29.88S
*POPPY PARK      N/A     57  40  52 SW12        N/A

CITY           SKY/WX    TMP DP  RH WIND       PRES   REMARKS
29 PALMS       PTCLDY    68  28  22 NW14      29.85S
BARSTOW/DAGGET CLEAR     68  31  25 SW28G40   29.76F
BISHOP         CLOUDY    57  31  37 N22G30    29.82R
CHINA LAKE     CLEAR     67  29  24 W23G39    29.73R
EDWARDS AFB    PTCLDY    62  39  43 W14       29.83S
MOJAVE         PTCLDY    63  37  39 S12G22    29.87R
NEEDLES        PTCLDY    75  36  24 W10       29.69F
VICTORVILLE    CLEAR     61  34  36 W12       29.88R

$$

CAZ039-040-300600-
VENTURA AND SANTA BARBARA COUNTY COAST


CITY           SKY/WX    TMP DP  RH WIND       PRES   REMARKS
CAMARILLO      MOCLDY    56  49  77 E5        29.90F
NWS OXNARD       N/A     56  49  79 NW2       29.90S
OXNARD AIRPORT CLOUDY    56  51  84 NE3       29.91S
*POINT MUGU    MOCLDY    56  50  80 W9        29.92S
SBA APT/GOLETA CLEAR     54  44  69 CALM      29.89S
*SANTA BARBARA   N/A     58  49  72 CALM      29.97S
*VENTURA         N/A     55  50  84 E1        29.89S

$$

CAZ044-045-300600-
VENTURA COUNTY VALLEYS


CITY           SKY/WX    TMP DP  RH WIND       PRES   REMARKS
*SIMI VALLEY     N/A     53  48  83 CALM      29.87S
*WESTLAKE VILL   N/A     49  45  84 CALM      29.89S
*OJAI            N/A     50  46  84 CALM      29.85S
*FILLMORE        N/A     55  47  74 CALM      29.80F

$$

CAZ053-300600-
VENTURA COUNTY MOUNTAINS


CITY           SKY/WX    TMP DP  RH WIND       PRES   REMARKS
*LOCKWOOD VLY    N/A     46  25  42 MISG        N/A
*ROSE VALLEY     N/A     48  45  87 MISG        N/A

$$

CAZ034-035-036-300600-
CENTRAL COAST AND SANTA YNEZ VALLEY


CITY           SKY/WX    TMP DP  RH WIND       PRES   REMARKS
SAN LUIS OBISP CLOUDY    55  48  77 N7        29.98S
SANTA MARIA    CLOUDY    53  49  86 NW12      29.99S

CITY           SKY/WX    TMP DP  RH WIND       PRES   REMARKS
*CAL POLY SLO    N/A     52  50  93 S5G12       N/A
*LOMPOC        CLOUDY    54  48  80 NW14      29.99S
*PISMO BEACH     N/A     54  49  82 CALM      29.98S
*SANTA YNEZ    CLOUDY    52  45  76 NW8       29.97F

$$

CAZ037-038-051-300600-
SAN LUIS OBISPO COUNTY INTERIOR AND CUYAMA VALLEY


CITY           SKY/WX    TMP DP  RH WIND       PRES   REMARKS
*CUYAMA          N/A     52  43  72 W13       29.86F
PASO ROBLES    CLEAR     54  43  66 NW15      29.93R

$$

CAZ032-033-061-300600-
SOUTHERN DESERTS


CITY           SKY/WX    TMP DP  RH WIND       PRES   REMARKS
BLYTHE         CLEAR     76  44  32 SW18      29.72S
IMPERIAL       CLEAR     71  44  37 W16       29.75R
PALM SPRINGS   CLEAR     73  44  35 W6        29.76R
THERMAL        CLEAR     74  44  34 NW21      29.72S

$$

ELSEWHERE ACROSS THE WESTERN UNITED STATES AND MEXICO


CITY           SKY/WX    TMP DP  RH WIND       PRES   REMARKS
DENVER, CO     LGT SNOW  33  30  88 N5        29.90S VSB 1   WCI  29
GRAND CANYON,  MOCLDY    39  33  79 CALM      29.93S
HONOLULU, HI   PTCLDY    79  66  65 E12G23    30.06R
KAHULUI, MAUI  PTCLDY    75  64  69 E15G25    30.05R
LAKE TAHOE, CA FLURRIES  33  31  92 SE3       30.01S
LAS VEGAS, NV  PTCLDY    70  31  23 SW3       29.66F
MAMMOTH LAKES, FAIR      41  24  51 NW12      29.94R WCI  34
MEXICO CITY, M MOCLDY    70  27  19 SE5       30.22S
PHOENIX, AZ    PTCLDY    74  35  24 SW9       29.77R
PORTLAND, OR   PTCLDY    53  46  77 W6        30.23R
RENO, NV       CLOUDY    47  35  63 NW14G22   30.01R
SALT LAKE CITY MOCLDY    50  39  66 N5        29.86R
SAN DIEGO, CA  CLOUDY    61  51  70 NW3       29.97S
SAN FRANCISCO, PTCLDY    54  45  71 W28G38    29.96R
SAN JOSE, CA   PTCLDY    57  43  59 W12G20    29.96R
SEATTLE, WA    PTCLDY    54  42  64 N5        30.21R
TIJUANA, MEX   CLOUDY    59  48  67 SW6       29.97S

$$

STATION/POSITION TIME  TEMP    WIND        PRES    VSBY  WAVE
                       AIR SEA DIR/SP/G                  HT/PER
                 (UTC) (F)     (DEG/KT/KT) (MB)    (MI)  (FT/S)
POINT ARGUELLO B NOT AVBL
WEST SANTA BARBA 0450   53 52  320/ 19/ 23 1014.0S         9/10
POINT CONCEPTION NOT AVBL
EAST SANTA BARBA 0400   55 55  290/ 23/ 29 1012.9S
SANTA MONICA BAY 0450   57 59   70/  8/ 10 1013.0S         5/ 7



USA.gov is the U.S. government's official web portal to all federal, state and local government web resources and services.